Location: Unspecified
(40.7945°N, 0.0000°E)
Time: 07:04:50
(UTC+00:00)

Explorer 7 - Pass Details

Date: 30 January 2021
Orbit: 484 x 677 km, 50.3° (Epoch: 28 February)

Event Time Altitude Azimuth Distance (km) Brightness Sun altitude
Rises 06:35:55 0° 305° (NW) 2,606 - -7.3°
Exits shadow 06:37:33 - 312° (NW) 2,001 9.1 -7.0°
Reaches altitude 10° 06:38:16 10° 316° (NW) 1,744 8.8 -6.8°
Maximum altitude 06:41:47 30° 19° (NNE) 980 8.1 -6.2°
Drops below altitude 10° 06:45:29 10° 82° (E) 1,835 10.7 -5.5°
Sets 06:48:00 0° 93° (E) 2,768 12.2 -5.1°
